Regional Weather Roundup
Issued by NWS

Home | Current Version | Previous Version | Graphics & Text | Print | Product List | Glossary Off
Versions: 1 2 3 4 5 6 7 8 9 10 11 12 13 14 15 16 17 18 19 20 21 22 23 24 25 26 27 28 29 30 31 32 33 34 35 36 37 38 39 40 41 42 43 44 45 46 47 48 49 50

000
ASUS43 KTOP 180759
RWRKS

WEATHER ROUNDUP FOR KANSAS
NATIONAL WEATHER SERVICE GOODLAND KS
300 AM CDT THU SEP 18 2014

NOTE:  "FAIR" INDICATES FEW OR NO CLOUDS BELOW 12,000 FEET WITH NO
SIGNIFICANT WEATHER AND/OR OBSTRUCTIONS TO VISIBILITY.

KSZ001>006-013>018-027>032-041>047-180900-
NORTHWEST KANSAS

CITY           SKY/WX    TMP DP  RH WIND       PRES   REMARKS
GOODLAND       CLOUDY    61  60  97 N5        29.98R
HAYS           CLOUDY    68  63  83 E12       29.90R
HILL CITY      MOCLDY    66  64  93 NE6       29.93S FOG
RUSSELL        CLOUDY    68  66  93 E10       29.88S FOG
$$

KSZ061>065-074>080-084>089-180900-
SOUTHWEST KANSAS

CITY           SKY/WX    TMP DP  RH WIND       PRES   REMARKS
DODGE CITY     CLEAR     65  59  81 SW8       29.91R
ELKHART          N/A     67  51  56 SW9         N/A
GARDEN CITY    CLEAR     61  58  90 SW7       29.91S
GREAT BEND     CLOUDY    68  64  88 E8        29.89R
LIBERAL        CLEAR     64  55  72 SW9       29.95S
$$

KSZ066>073-081>083-090>101-180900-
SOUTHEAST KANSAS

CITY           SKY/WX    TMP DP  RH WIND       PRES   REMARKS
CHANUTE        TSTM      67  64  90 E13G21    29.91F
COFFEYVILLE    MOCLDY    69  65  86 E14       29.93R
HUTCHINSON     PTCLDY    70  68  93 SE5       29.85S FOG
NEWTON         MOCLDY    68  63  83 E10       29.88S
PARSONS        MOCLDY    71  65  81 VRB6      29.93R
WICHITA INTL   MOCLDY    72  66  81 SE7       29.85S
WICHITA JABRA  CLEAR     68  67  96 E5        29.85S
WINFIELD       PTCLDY    75  70  84 S9        29.86S
$$

KSZ007>012-019>026-033>040-048>060-102>105-180900-
NORTHEAST KANSAS

CITY           SKY/WX    TMP DP  RH WIND       PRES   REMARKS
CONCORDIA      MOCLDY    63  63 100 E10       29.91F FOG
EMPORIA        CLOUDY    67  66  97 NE21      29.93R
LAWRENCE       CLOUDY    64  63  96 E9        29.95R FOG
MANHATTAN      CLOUDY    67  65  93 E5        29.91R THUNDER
OLATHE IND     CLOUDY    64  64 100 E8        29.96R
OLATHE EXE     CLOUDY    63  63 100 SE7       29.96R
SALINA         TSTM      63  60  90 E17G36    29.90S VSB 3/4
TOPEKA BILLARD CLOUDY    66  66 100 NE8       29.93F FOG
TOPEKA FORBES  CLOUDY    64  63  96 E5        29.93R
$$


USA.gov is the U.S. government's official web portal to all federal, state and local government web resources and services.